Starlink 11246

operational
NORAD ID: 60932 Int'l Des: 2024-155 Owner: SPXS Country: US Constellation: starlink
LEOCIRCULAR

About Starlink 11246

Description loading...

Live Position

Loading 3D Globe...

Upcoming Passes

Altitude History

Altitude vs Time

uPlot chart will show altitude changes over time

Two-Line Element Set

1 60932U 24155J 25259.09848944 -.00001292 00000-0 -58090-5 0 9999
2 60932 53.1575 121.7192 0001045 81.4529 278.6607 15.69707983 60984
Epoch: Sep 16, 2025 • Age: 27 hours

Current Status

Altitude 364.7 km
Velocity 7.69 km/s
Sub-Earth Point -17.38°S, 19.54°E
Launch Date Aug 31, 2024
Age 1 years
Type internet

Technical Details

Classification Payload
Mass 960.00 kg
Dry Mass 910.00 kg
Total Mass 960.00 kg
Length 0.30 m
Diameter 4.10 m
Span 29.00 m
Shape Box + pan
Manufacturer SPXS
Bus Type Starlink V2MD
Phase Status In Orbit
Owner/State SPXS/US

Large Constellations

Loading constellations...